(186358) = 2002 GT45

Discovered at Haleakala on 2002-04-04 by NEAT.

Orbit

Orbit type: Main Belt

Note: WebGL enabled browser required.

epoch2024-03-31.0
epoch JD2460400.5
perihelion date2020-06-01.94242
perihelion JD2459002.44242
argument of perihelion (°)130.97937
ascending node (°)134.10162
inclination (°)4.05119
eccentricity0.2824774
perihelion distance (AU)2.3216647
Tisserand w.r.t. Jupiter3.1
ΔV w.r.t. Earth (km/sec)9.7
semimajor axis (AU)3.2356678
mean anomaly (°)236.74620
mean daily motion (°/day)0.16933940
aphelion distance (AU)4.150
period (years)5.82
P-vector [x]-0.08439288
P-vector [y]-0.93411393
P-vector [z]-0.34685589
Q-vector [x]0.99514022
Q-vector [y]-0.06128909
Q-vector [z]-0.07706878
absolute magnitude15.14
phase slope0.15
uncertainty0
referenceMPEC 2024-E23
observations used721
oppositions16
arc length (days)7999
first opposition used2002
last opposition used2024
residual rms (arc-secs)0.69
perturbers coarse indicatorM-v
perturbers precise indicator003Ek
first observation date used2002-03-20.0
last observation date used2024-02-12.0
computer nameMPCLINUX
JD of orbit computation2456937.225585
perihelion JD uncertainty (days)4.5802E-05
argument of perihelion uncertainty (°)6.8380E-05
ascending node uncertainty (°)6.7510E-05
inclination uncertainty (°)3.0527E-06
eccentricity uncertainty 3.4491E-08
perihelion distance uncertainty (AU)1.1210E-07
Minimum Orbit Intersection Distances (in AU)
for orbit epoch: 2460400.5, reference: E2024-GD4
Mercury1.86016
Venus1.59704
Earth1.3082
Mars0.84767
Jupiter0.97167
Saturn4.89775
Uranus14.7393
Neptune25.7978

Observations

735 total observations over interval: 2002 03 20.31446 – 2024 02 12.279821
These data are available for download (format description).

Date (UT) J2000 RA J2000 Dec Magn Location Ref
2002 03 20.31446 13 41 07.92 -04 42 09.6 18.7 R 699 – Lowell Observatory-LONEOS MPS 57397
2002 03 20.32709 13 41 07.61 -04 42 05.6   699 – Lowell Observatory-LONEOS MPS 57397
2002 03 20.33975 13 41 07.19 -04 42 02.4   699 – Lowell Observatory-LONEOS MPS 57397
2002 03 20.35230 13 41 06.87 -04 41 59.4   699 – Lowell Observatory-LONEOS MPS 57397
2002 04 04.42674 13 32 10.12 -03 23 20.1 19.1   608 – Haleakala-AMOS MPS 55166
2002 04 04.43744 13 32 09.64 -03 23 16.5 19.3   608 – Haleakala-AMOS MPS 55166
2002 04 04.44816 13 32 09.16 -03 23 13.1 19.0   608 – Haleakala-AMOS MPS 55166
2002 04 05.22047 13 31 36.82 -03 18 58.6 18.6 R 699 – Lowell Observatory-LONEOS MPS 55166
2002 04 05.23712 13 31 36.08 -03 18 54.3   699 – Lowell Observatory-LONEOS MPS 55166
2002 04 05.25378 13 31 35.41 -03 18 48.3   699 – Lowell Observatory-LONEOS MPS 55166
2002 04 05.27062 13 31 34.62 -03 18 42.6   699 – Lowell Observatory-LONEOS MPS 55166
2002 04 10.31523 13 27 54.83 -02 50 59.2 19.4   704 – Lincoln Laboratory ETS, New Mexico MPS 57397
2002 04 10.32687 13 27 54.35 -02 50 57.3 19.0   704 – Lincoln Laboratory ETS, New Mexico MPS 57397
2002 04 10.33865 13 27 53.75 -02 50 52.8 19.1   704 – Lincoln Laboratory ETS, New Mexico MPS 57397
2002 04 10.35036 13 27 53.22 -02 50 49.4 19.4   704 – Lincoln Laboratory ETS, New Mexico MPS 57397
2002 04 12.49480 13 26 16.97 -02 39 11.6 18.9   608 – Haleakala-AMOS MPS 57397
2002 04 12.50585 13 26 16.44 -02 39 08.0 19.0   608 – Haleakala-AMOS MPS 57397
2002 04 12.51632 13 26 15.96 -02 39 04.7 18.9   608 – Haleakala-AMOS MPS 57397
2002 04 13.30821 13 25 40.60 -02 34 52.1 18.0   644 – Palomar Mountain/NEAT MPS 57397
2002 04 13.33048 13 25 39.55 -02 34 45.2 18.0   644 – Palomar Mountain/NEAT MPS 57397
2002 04 13.35983 13 25 38.18 -02 34 35.6 18.1   644 – Palomar Mountain/NEAT MPS 57397
2002 04 14.32516 13 24 54.63 -02 29 29.5 18.5   644 – Palomar Mountain/NEAT MPS 57397
2002 04 14.34779 13 24 53.59 -02 29 21.9 18.7   644 – Palomar Mountain/NEAT MPS 57397
2002 04 14.37163 13 24 52.45 -02 29 14.6 18.6   644 – Palomar Mountain/NEAT MPS 57397
2002 04 16.33425 13 23 23.67 -02 18 59.3 19.2   704 – Lincoln Laboratory ETS, New Mexico MPS 57397
2002 04 16.34841 13 23 22.99 -02 18 55.0 19.2   704 – Lincoln Laboratory ETS, New Mexico MPS 57397
2002 04 16.36267 13 23 22.42 -02 18 50.8 19.2   704 – Lincoln Laboratory ETS, New Mexico MPS 57397
2002 04 16.37684 13 23 21.94 -02 18 45.4 19.6   704 – Lincoln Laboratory ETS, New Mexico MPS 57397
2002 04 17.27672 13 22 41.24 -02 14 09.7 18.9   704 – Lincoln Laboratory ETS, New Mexico MPS 57397
2002 04 17.29033 13 22 40.67 -02 14 05.8 19.0   704 – Lincoln Laboratory ETS, New Mexico MPS 57397
2002 04 17.30392 13 22 40.00 -02 14 01.8 18.9   704 – Lincoln Laboratory ETS, New Mexico MPS 57397
2002 04 17.31756 13 22 39.34 -02 13 57.8 19.1   704 – Lincoln Laboratory ETS, New Mexico MPS 57397
2002 04 17.33118 13 22 38.70 -02 13 54.0 19.3   704 – Lincoln Laboratory ETS, New Mexico MPS 57397
2002 04 18.56855 13 21 42.92 -02 07 37.7 19.9   608 – Haleakala-AMOS MPS 57397
2002 04 18.57879 13 21 42.39 -02 07 35.1 20.1   608 – Haleakala-AMOS MPS 57397
2002 04 18.58960 13 21 41.88 -02 07 32.2 20.1   608 – Haleakala-AMOS MPS 57397
2002 05 07.22487 13 09 18.60 -00 54 27.5 19.8   704 – Lincoln Laboratory ETS, New Mexico MPS 57397
2002 05 07.23713 13 09 18.14 -00 54 25.0 19.5   704 – Lincoln Laboratory ETS, New Mexico MPS 57397
2002 05 07.24943 13 09 17.73 -00 54 23.8 19.5   704 – Lincoln Laboratory ETS, New Mexico MPS 57397
2002 05 07.26174 13 09 17.20 -00 54 21.8 19.6   704 – Lincoln Laboratory ETS, New Mexico MPS 57397
2002 05 14.21208 13 06 02.00 -00 40 19.7 18.8 R 699 – Lowell Observatory-LONEOS MPS 57397
2002 05 14.22807 13 06 01.56 -00 40 17.9   699 – Lowell Observatory-LONEOS MPS 57397
2002 05 14.24399 13 06 01.19 -00 40 16.2   699 – Lowell Observatory-LONEOS MPS 57398
2002 05 14.25998 13 06 00.76 -00 40 15.3   699 – Lowell Observatory-LONEOS MPS 57398
2002 05 16.23819 13 05 16.48 -00 37 48.3 19.7   704 – Lincoln Laboratory ETS, New Mexico MPS 57398
2002 05 16.25324 13 05 16.12 -00 37 47.5 19.5   704 – Lincoln Laboratory ETS, New Mexico MPS 57398
2002 05 16.26831 13 05 15.81 -00 37 46.3 19.1   704 – Lincoln Laboratory ETS, New Mexico MPS 57398
2002 05 16.28338 13 05 15.48 -00 37 45.4 19.3   704 – Lincoln Laboratory ETS, New Mexico MPS 57398
2003 08 04.33675 23 20 18.01 -06 37 38.4 18.9   704 – Lincoln Laboratory ETS, New Mexico MPS 83341
2003 08 04.34714 23 20 17.68 -06 37 41.3 19.3   704 – Lincoln Laboratory ETS, New Mexico MPS 83341
2003 08 04.35785 23 20 17.42 -06 37 44.1 19.0   704 – Lincoln Laboratory ETS, New Mexico MPS 83341
2003 08 04.36826 23 20 17.19 -06 37 47.0 19.3   704 – Lincoln Laboratory ETS, New Mexico MPS 83341
2003 08 04.37861 23 20 16.99 -06 37 49.5 19.1   704 – Lincoln Laboratory ETS, New Mexico MPS 83341
2003 08 22.26678 23 10 44.57 -08 11 12.9 18.8   644 – Palomar Mountain/NEAT MPS 83342
2003 08 22.30618 23 10 42.93 -08 11 27.1 18.7   644 – Palomar Mountain/NEAT MPS 83342
2003 08 22.34951 23 10 41.13 -08 11 42.5 18.5   644 – Palomar Mountain/NEAT MPS 83342
2003 08 23.29129 23 10 03.05 -08 17 16.6 18.8   704 – Lincoln Laboratory ETS, New Mexico MPS 83342
2003 08 23.31656 23 10 01.97 -08 17 25.1 19.3   704 – Lincoln Laboratory ETS, New Mexico MPS 83342
2003 08 23.32903 23 10 01.47 -08 17 29.3 19.0   704 – Lincoln Laboratory ETS, New Mexico MPS 83342
2003 08 23.34170 23 10 00.86 -08 17 33.4 19.1   704 – Lincoln Laboratory ETS, New Mexico MPS 83342
2003 08 26.30609 23 07 57.33 -08 35 12.5 18.1   704 – Lincoln Laboratory ETS, New Mexico MPS 83342
2003 08 26.31906 23 07 56.77 -08 35 17.3 18.6   704 – Lincoln Laboratory ETS, New Mexico MPS 83342
2003 08 26.33148 23 07 56.23 -08 35 21.5 18.7   704 – Lincoln Laboratory ETS, New Mexico MPS 83342
2003 08 26.34433 23 07 55.60 -08 35 26.3 18.5   704 – Lincoln Laboratory ETS, New Mexico MPS 83342
2003 09 01.24945 23 03 38.35 -09 10 51.1 18.4   704 – Lincoln Laboratory ETS, New Mexico MPS 84031
2003 09 01.26130 23 03 37.79 -09 10 55.2 18.8   704 – Lincoln Laboratory ETS, New Mexico MPS 84031
2003 09 01.27313 23 03 37.21 -09 10 59.2 19.1   704 – Lincoln Laboratory ETS, New Mexico MPS 84031
2003 09 01.28494 23 03 36.72 -09 11 03.7 19.0   704 – Lincoln Laboratory ETS, New Mexico MPS 84031
2003 09 01.29684 23 03 36.16 -09 11 07.5 19.0   704 – Lincoln Laboratory ETS, New Mexico MPS 84031
2003 09 14.21990 22 54 10.07 -10 23 53.7 18.4   644 – Palomar Mountain/NEAT MPS 84524
2003 09 14.30747 22 54 06.28 -10 24 21.0 18.2   644 – Palomar Mountain/NEAT MPS 84524
2003 09 14.37080 22 54 03.54 -10 24 40.4 18.2   644 – Palomar Mountain/NEAT MPS 84524
2003 09 18.18876 22 51 28.42 -10 43 33.1 18.7 R 699 – Lowell Observatory-LONEOS MPS 85198
2003 09 18.20709 22 51 27.64 -10 43 38.4   699 – Lowell Observatory-LONEOS MPS 85198
2003 09 18.22546 22 51 26.85 -10 43 44.3   699 – Lowell Observatory-LONEOS MPS 85198
2003 09 18.24365 22 51 26.18 -10 43 49.1   699 – Lowell Observatory-LONEOS MPS 85198
2003 09 18.26659 22 51 25.41 -10 43 55.2 20.7   608 – Haleakala-AMOS MPS 86200
2003 09 18.27742 22 51 24.96 -10 43 58.5 20.5   608 – Haleakala-AMOS MPS 86200
2003 09 18.28791 22 51 24.52 -10 44 01.4 20.6   608 – Haleakala-AMOS MPS 86200
2003 09 21.21839 22 49 32.04 -10 57 23.4 20.0 V 691 – Steward Observatory, Kitt Peak-Spacewatch MPS 85198
2003 09 21.24786 22 49 30.90 -10 57 31.3 20.0 V 691 – Steward Observatory, Kitt Peak-Spacewatch MPS 85198
2003 09 21.27401 22 49 29.89 -10 57 38.1 19.9 V 691 – Steward Observatory, Kitt Peak-Spacewatch MPS 85198
2003 09 24.24703 22 47 43.24 -11 10 05.7 18.8   644 – Palomar Mountain/NEAT MPS 85198
2003 09 24.26803 22 47 42.48 -11 10 10.6 19.0   644 – Palomar Mountain/NEAT MPS 85198
2003 09 24.28884 22 47 41.72 -11 10 15.7 18.8   644 – Palomar Mountain/NEAT MPS 85198
2003 09 28.16929 22 45 35.29 -11 24 44.3 19.7   704 – Lincoln Laboratory ETS, New Mexico MPS 86200
2003 09 28.18222 22 45 34.88 -11 24 45.9 19.6   704 – Lincoln Laboratory ETS, New Mexico MPS 86200
2003 09 28.19552 22 45 34.53 -11 24 50.5 19.8   704 – Lincoln Laboratory ETS, New Mexico MPS 86200
2003 09 28.20903 22 45 34.06 -11 24 50.5 20.2   704 – Lincoln Laboratory ETS, New Mexico MPS 86200
